Cartersville, GA

3:33 PM EDT on September 26, 2016 (GMT -0400)
Cartersville

Weather History for KVPC - April, 2014

Change the Weather History Date:

Thursday, April 3, 2014

  Actual Average Record
Temperature  
Mean Temperature 68 °F 56 °F  
Max Temperature 81 °F 70 °F 87 °F (2012)
Min Temperature 55 °F 42 °F 36 °F (2011)
Degree Days  
Heating Degree Days 0 9  
Month to date heating degree days 7 29  
Since 1 July heating degree days 3271 3057  
Cooling Degree Days 3 0  
Month to date cooling degree days 3 0  
Year to date cooling degree days 3 4  
Growing Degree Days 18 (Base 50)    
Moisture  
Dew Point 57 °F    
Average Humidity 66    
Maximum Humidity 93    
Minimum Humidity 39    
Precipitation  
Precipitation 0.00 in 0.13 in 4.96 in (1979)
Month to date precipitation 0.00 0.40  
Year to date precipitation 10.43 14.62  
Sea Level Pressure  
Sea Level Pressure 30.00 in    
Wind  
Wind Speed 4 mph (South)    
Max Wind Speed 13 mph    
Max Gust Speed 21 mph    
Visibility 10 miles    
Events      
T = Trace of Precipitation, MM = Missing Value Source: NWS Daily Summary

Daily Weather History Graph

Daily Weather History Graph

Search for Another Location

Airport or City:

Trip Planner

Search our weather history database for the weather conditions in past years. The results will help you decide how hot, cold, wet, or windy it might be!

Date:

Astronomy

Apr. 03, 2014 Rise Set
Actual Time 7:23 AM EDT 8:01 PM EDT
Civil Twilight 6:58 AM EDT 8:27 PM EDT
Nautical Twilight 6:29 AM EDT 8:56 PM EDT
Astronomical Twilight 5:58 AM EDT 9:27 PM EDT
Moon 10:01 AM EDT (4/3) No Moon Set
Length of Visible Light 13h 28m
Length of Day
12h 37m
Waxing Crescent, 17% of the Moon is Illuminated
Apr 3
Waxing Crescent
Apr 7
First Quarter
Apr 15
Full
Apr 22
Last Quarter
Apr 29
New

Hourly Weather History & Observations

Time (EDT) Temp. Heat Index Dew Point Humidity Pressure Visibility Wind Dir Wind Speed Gust Speed Precip Events Conditions
12:53 AM 64.0 °F - 54.0 °F 70% 30.04 in 10.0 mi Calm Calm - N/A   Clear
1:53 AM 64.0 °F - 55.9 °F 75% 30.04 in 10.0 mi Calm Calm - N/A   Mostly Cloudy
2:53 AM 61.0 °F - 55.9 °F 83% 30.02 in 10.0 mi Calm Calm - N/A   Clear
3:53 AM 64.9 °F - 55.9 °F 73% 30.01 in 10.0 mi Calm Calm - N/A   Clear
4:53 AM 62.1 °F - 55.9 °F 80% 30.02 in 10.0 mi Calm Calm - N/A   Clear
5:53 AM 59.0 °F - 55.9 °F 90% 30.03 in 10.0 mi Calm Calm - N/A   Clear
6:53 AM 57.0 °F - 54.0 °F 89% 30.04 in 10.0 mi Calm Calm - N/A   Clear
7:53 AM 55.0 °F - 53.1 °F 93% 30.05 in 10.0 mi Calm Calm - N/A   Clear
8:53 AM 64.0 °F - 57.9 °F 80% 30.05 in 10.0 mi Variable 4.6 mph - N/A   Partly Cloudy
9:11 AM 64.9 °F - 57.9 °F 78% 30.08 in 10.0 mi South 5.8 mph - N/A   Mostly Cloudy
9:53 AM 66.0 °F - 59.0 °F 78% 30.05 in 10.0 mi South 6.9 mph - N/A   Overcast
10:53 AM 66.9 °F - 60.1 °F 79% 30.05 in 10.0 mi Variable 6.9 mph - N/A   Overcast
11:15 AM 66.9 °F - 60.1 °F 79% 30.07 in 10.0 mi South 4.6 mph - N/A   Overcast
11:43 AM 69.1 °F - 60.1 °F 73% 30.07 in 10.0 mi South 3.5 mph - N/A   Overcast
11:53 AM 69.1 °F - 60.1 °F 73% 30.04 in 10.0 mi South 8.1 mph - N/A   Overcast
12:53 PM 71.1 °F - 60.1 °F 68% 30.03 in 10.0 mi Calm Calm - N/A   Overcast
1:04 PM 73.0 °F - 60.1 °F 64% 30.04 in 10.0 mi Variable 3.5 mph - N/A   Overcast
1:53 PM 75.0 °F - 57.0 °F 53% 30.00 in 10.0 mi SSW 8.1 mph - N/A   Scattered Clouds
2:53 PM 75.9 °F - 57.0 °F 52% 29.97 in 10.0 mi Variable 4.6 mph - N/A   Scattered Clouds
3:53 PM 79.0 °F - 57.0 °F 47% 29.93 in 10.0 mi Variable 6.9 mph 20.7 mph N/A   Clear
4:53 PM 79.0 °F - 55.9 °F 45% 29.92 in 10.0 mi Variable 5.8 mph - N/A   Clear
5:53 PM 80.1 °F 80.0 °F 54.0 °F 40% 29.92 in 10.0 mi Variable 5.8 mph 17.3 mph N/A   Clear
6:53 PM 79.0 °F - 53.1 °F 40% 29.91 in 10.0 mi SSW 8.1 mph - N/A   Clear
7:53 PM 73.9 °F - 54.0 °F 50% 29.92 in 10.0 mi South 3.5 mph - N/A   Clear
8:53 PM 66.0 °F - 55.9 °F 70% 29.92 in 10.0 mi South 4.6 mph - N/A   Clear
9:53 PM 63.0 °F - 55.9 °F 78% 29.93 in 10.0 mi Calm Calm - N/A   Clear
11:53 PM 66.9 °F - 52.0 °F 59% 29.92 in 10.0 mi South 5.8 mph - N/A   Clear